Year,Month,Day,Hour,Minute,Value (Times are PST for temperature in C)
2018,07,07,00,00,17.70
2018,07,07,00,01,17.70
2018,07,07,00,02,17.70
2018,07,07,00,03,17.60
2018,07,07,00,04,17.60
2018,07,07,00,05,17.60
2018,07,07,00,06,17.60
2018,07,07,00,07,17.60
2018,07,07,00,08,17.60
2018,07,07,00,09,17.50
2018,07,07,00,10,17.50
2018,07,07,00,11,17.50
2018,07,07,00,12,17.50
2018,07,07,00,13,17.50
2018,07,07,00,14,17.50
2018,07,07,00,15,17.50
2018,07,07,00,16,17.50
2018,07,07,00,17,17.40
2018,07,07,00,18,17.40
2018,07,07,00,19,17.40
2018,07,07,00,20,17.40
2018,07,07,00,21,17.40
2018,07,07,00,22,17.40
2018,07,07,00,23,17.40
2018,07,07,00,24,17.40
2018,07,07,00,25,17.30
2018,07,07,00,26,17.30
2018,07,07,00,27,17.30
2018,07,07,00,28,17.30
2018,07,07,00,29,17.30
2018,07,07,00,30,17.30
2018,07,07,00,31,17.30
2018,07,07,00,32,17.30
2018,07,07,00,33,17.30
2018,07,07,00,34,17.30
2018,07,07,00,35,17.30
2018,07,07,00,36,17.20
2018,07,07,00,37,17.20
2018,07,07,00,38,17.20
2018,07,07,00,39,17.20
2018,07,07,00,40,17.10
2018,07,07,00,41,17.10
2018,07,07,00,42,17.10
2018,07,07,00,43,17.10
2018,07,07,00,44,17.10
2018,07,07,00,45,17.00
2018,07,07,00,46,17.00
2018,07,07,00,47,17.00
2018,07,07,00,48,17.00
2018,07,07,00,49,17.00
2018,07,07,00,50,17.00
2018,07,07,00,51,17.00
2018,07,07,00,52,17.00
2018,07,07,00,53,17.00
2018,07,07,00,54,17.00
2018,07,07,00,55,17.00
2018,07,07,00,56,16.90
2018,07,07,00,57,17.00
2018,07,07,00,58,17.00
2018,07,07,00,59,17.00
2018,07,07,01,00,17.00
2018,07,07,01,01,17.00
2018,07,07,01,02,17.00
2018,07,07,01,03,17.00
2018,07,07,01,04,17.00
2018,07,07,01,05,17.00
2018,07,07,01,06,17.10
2018,07,07,01,07,17.10
2018,07,07,01,08,17.10
2018,07,07,01,09,17.10
2018,07,07,01,10,17.10
2018,07,07,01,11,17.10
2018,07,07,01,12,17.10
2018,07,07,01,13,17.10
2018,07,07,01,14,17.20
2018,07,07,01,15,17.20
2018,07,07,01,16,17.20
2018,07,07,01,17,17.20
2018,07,07,01,18,17.20
2018,07,07,01,19,17.20
2018,07,07,01,20,17.20
2018,07,07,01,21,17.20
2018,07,07,01,22,17.20
2018,07,07,01,23,17.20
2018,07,07,01,24,17.20
2018,07,07,01,25,17.20
2018,07,07,01,26,17.20
2018,07,07,01,27,17.20
2018,07,07,01,28,17.20
2018,07,07,01,29,17.20
2018,07,07,01,30,17.20
2018,07,07,01,31,17.20
2018,07,07,01,32,17.20
2018,07,07,01,33,17.20
2018,07,07,01,34,17.20
2018,07,07,01,35,17.20
2018,07,07,01,36,17.20
2018,07,07,01,37,17.20
2018,07,07,01,38,17.20
2018,07,07,01,39,17.20
2018,07,07,01,40,17.20
2018,07,07,01,41,17.20
2018,07,07,01,42,17.20
2018,07,07,01,43,17.20
2018,07,07,01,44,17.20
2018,07,07,01,45,17.20
2018,07,07,01,46,17.20
2018,07,07,01,47,17.20
2018,07,07,01,48,17.20
2018,07,07,01,49,17.20
2018,07,07,01,50,17.20
2018,07,07,01,51,17.20
2018,07,07,01,52,17.20
2018,07,07,01,53,17.20
2018,07,07,01,54,17.20
2018,07,07,01,55,17.20
2018,07,07,01,56,17.20
2018,07,07,01,57,17.20
2018,07,07,01,58,17.20
2018,07,07,01,59,17.20
2018,07,07,02,00,17.20
2018,07,07,02,01,17.20
2018,07,07,02,02,17.20
2018,07,07,02,03,17.20
2018,07,07,02,04,17.10
2018,07,07,02,05,17.10
2018,07,07,02,06,17.10
2018,07,07,02,07,17.10
2018,07,07,02,08,17.10
2018,07,07,02,09,17.10
2018,07,07,02,10,17.10
2018,07,07,02,11,17.10
2018,07,07,02,12,17.10
2018,07,07,02,13,17.10
2018,07,07,02,14,17.10
2018,07,07,02,15,17.00
2018,07,07,02,16,17.00
2018,07,07,02,17,17.00
2018,07,07,02,18,17.00
2018,07,07,02,19,17.00
2018,07,07,02,20,16.90
2018,07,07,02,21,16.90
2018,07,07,02,22,16.90
2018,07,07,02,23,16.90
2018,07,07,02,24,16.80
2018,07,07,02,25,16.80
2018,07,07,02,26,16.80
2018,07,07,02,27,16.80
2018,07,07,02,28,16.80
2018,07,07,02,29,16.80
2018,07,07,02,30,16.80
2018,07,07,02,31,16.80
2018,07,07,02,32,16.80
2018,07,07,02,33,16.80
2018,07,07,02,34,16.80
2018,07,07,02,35,16.80
2018,07,07,02,36,16.80
2018,07,07,02,37,16.80
2018,07,07,02,38,16.80
2018,07,07,02,39,16.80
2018,07,07,02,40,16.80
2018,07,07,02,41,16.70
2018,07,07,02,42,16.70
2018,07,07,02,43,16.70
2018,07,07,02,44,16.70
2018,07,07,02,45,16.70
2018,07,07,02,46,16.70
2018,07,07,02,47,16.70
2018,07,07,02,48,16.70
2018,07,07,02,49,16.70
2018,07,07,02,50,16.60
2018,07,07,02,51,16.60
2018,07,07,02,52,16.60
2018,07,07,02,53,16.60
2018,07,07,02,54,16.60
2018,07,07,02,55,16.60
2018,07,07,02,56,16.50
2018,07,07,02,57,16.50
2018,07,07,02,58,16.50
2018,07,07,02,59,16.50
2018,07,07,03,00,16.50
2018,07,07,03,01,16.50
2018,07,07,03,02,16.50
2018,07,07,03,03,16.50
2018,07,07,03,04,16.50
2018,07,07,03,05,16.40
2018,07,07,03,06,16.50
2018,07,07,03,07,16.50
2018,07,07,03,08,16.40
2018,07,07,03,09,16.40
2018,07,07,03,10,16.40
2018,07,07,03,11,16.40
2018,07,07,03,12,16.40
2018,07,07,03,13,16.40
2018,07,07,03,14,16.40
2018,07,07,03,15,16.40
2018,07,07,03,16,16.40
2018,07,07,03,17,16.40
2018,07,07,03,18,16.40
2018,07,07,03,19,16.40
2018,07,07,03,20,16.40
2018,07,07,03,21,16.40
2018,07,07,03,22,16.40
2018,07,07,03,23,16.40
2018,07,07,03,24,16.40
2018,07,07,03,25,16.40
2018,07,07,03,26,16.50
2018,07,07,03,27,16.40
2018,07,07,03,28,16.40
2018,07,07,03,29,16.40
2018,07,07,03,30,16.40
2018,07,07,03,31,16.40
2018,07,07,03,32,16.40
2018,07,07,03,33,16.40
2018,07,07,03,34,16.40
2018,07,07,03,35,16.40
2018,07,07,03,36,16.40
2018,07,07,03,37,16.40
2018,07,07,03,38,16.40
2018,07,07,03,39,16.40
2018,07,07,03,40,16.40
2018,07,07,03,41,16.40
2018,07,07,03,42,16.40
2018,07,07,03,43,16.40
2018,07,07,03,44,16.40
2018,07,07,03,45,16.40
2018,07,07,03,46,16.30
2018,07,07,03,47,16.30
2018,07,07,03,48,16.30
2018,07,07,03,49,16.30
2018,07,07,03,50,16.30
2018,07,07,03,51,16.30
2018,07,07,03,52,16.30
2018,07,07,03,53,16.30
2018,07,07,03,54,16.30
2018,07,07,03,55,16.30
2018,07,07,03,56,16.30
2018,07,07,03,57,16.30
2018,07,07,03,58,16.30
2018,07,07,03,59,16.30
2018,07,07,04,00,16.30
2018,07,07,04,01,16.30
2018,07,07,04,02,16.30
2018,07,07,04,03,16.30
2018,07,07,04,04,16.30
2018,07,07,04,05,16.30
2018,07,07,04,06,16.30
2018,07,07,04,07,16.30
2018,07,07,04,08,16.30
2018,07,07,04,09,16.30
2018,07,07,04,10,16.30
2018,07,07,04,11,16.30
2018,07,07,04,12,16.30
2018,07,07,04,13,16.30
2018,07,07,04,14,16.30
2018,07,07,04,15,16.30
2018,07,07,04,16,16.30
2018,07,07,04,17,16.20
2018,07,07,04,18,16.30
2018,07,07,04,19,16.20
2018,07,07,04,20,16.20
2018,07,07,04,21,16.30
2018,07,07,04,22,16.20
2018,07,07,04,23,16.20
2018,07,07,04,24,16.20
2018,07,07,04,25,16.20
2018,07,07,04,26,16.20
2018,07,07,04,27,16.20
2018,07,07,04,28,16.20
2018,07,07,04,29,16.20
2018,07,07,04,30,16.10
2018,07,07,04,31,16.10
2018,07,07,04,32,16.10
2018,07,07,04,33,16.10
2018,07,07,04,34,16.10
2018,07,07,04,35,16.10
2018,07,07,04,36,16.10
2018,07,07,04,37,16.00
2018,07,07,04,38,16.00
2018,07,07,04,39,16.00
2018,07,07,04,40,15.90
2018,07,07,04,41,15.90
2018,07,07,04,42,15.90
2018,07,07,04,43,15.90
2018,07,07,04,44,15.90
2018,07,07,04,45,15.90
2018,07,07,04,46,15.80
2018,07,07,04,47,15.80
2018,07,07,04,48,15.80
2018,07,07,04,49,15.80
2018,07,07,04,50,15.70
2018,07,07,04,51,15.70
2018,07,07,04,52,15.70
2018,07,07,04,53,15.70
2018,07,07,04,54,15.70
2018,07,07,04,55,15.70
2018,07,07,04,56,15.70
2018,07,07,04,57,15.60
2018,07,07,04,58,15.60
2018,07,07,04,59,15.60
2018,07,07,05,00,15.60
2018,07,07,05,01,15.60
2018,07,07,05,02,15.60
2018,07,07,05,03,15.60
2018,07,07,05,04,15.60
2018,07,07,05,05,15.60
2018,07,07,05,06,15.60
2018,07,07,05,07,15.60
2018,07,07,05,08,15.60
2018,07,07,05,09,15.60
2018,07,07,05,10,15.60
2018,07,07,05,11,15.60
2018,07,07,05,12,15.60
2018,07,07,05,13,15.60
2018,07,07,05,14,15.60
2018,07,07,05,15,15.60
2018,07,07,05,16,15.60
2018,07,07,05,17,15.60
2018,07,07,05,18,15.60
2018,07,07,05,19,15.60
2018,07,07,05,20,15.60
2018,07,07,05,21,15.60
2018,07,07,05,22,15.60
2018,07,07,05,23,15.60
2018,07,07,05,24,15.60
2018,07,07,05,25,15.60
2018,07,07,05,26,15.60
2018,07,07,05,27,15.60
2018,07,07,05,28,15.60
2018,07,07,05,29,15.60
2018,07,07,05,30,15.60
2018,07,07,05,31,15.60
2018,07,07,05,32,15.60
2018,07,07,05,33,15.60
2018,07,07,05,34,15.60
2018,07,07,05,35,15.60
2018,07,07,05,36,15.60
2018,07,07,05,37,15.60
2018,07,07,05,38,15.60
2018,07,07,05,39,15.60
2018,07,07,05,40,15.60
2018,07,07,05,41,15.60
2018,07,07,05,42,15.60
2018,07,07,05,43,15.60
2018,07,07,05,44,15.60
2018,07,07,05,45,15.60
2018,07,07,05,46,15.60
2018,07,07,05,47,15.70
2018,07,07,05,48,15.60
2018,07,07,05,49,15.70
2018,07,07,05,50,15.60
2018,07,07,05,51,15.60
2018,07,07,05,52,15.70
2018,07,07,05,53,15.60
2018,07,07,05,54,15.60
2018,07,07,05,55,15.60
2018,07,07,05,56,15.60
2018,07,07,05,57,15.60
2018,07,07,05,58,15.60
2018,07,07,05,59,15.60
2018,07,07,06,00,15.60
2018,07,07,06,01,15.60
2018,07,07,06,02,15.60
2018,07,07,06,03,15.60
2018,07,07,06,04,15.60
2018,07,07,06,05,15.60
2018,07,07,06,06,15.60
2018,07,07,06,07,15.60
2018,07,07,06,08,15.50
2018,07,07,06,09,15.50
2018,07,07,06,10,15.50
2018,07,07,06,11,15.50
2018,07,07,06,12,15.50
2018,07,07,06,13,15.50
2018,07,07,06,14,15.50
2018,07,07,06,15,15.40
2018,07,07,06,16,15.50
2018,07,07,06,17,15.40
2018,07,07,06,18,15.40
2018,07,07,06,19,15.40
2018,07,07,06,20,15.40
2018,07,07,06,21,15.40
2018,07,07,06,22,15.40
2018,07,07,06,23,15.40
2018,07,07,06,24,15.40
2018,07,07,06,25,15.40
2018,07,07,06,26,15.40
2018,07,07,06,27,15.40
2018,07,07,06,28,15.40
2018,07,07,06,29,15.40
2018,07,07,06,30,15.40
2018,07,07,06,31,15.30
2018,07,07,06,32,15.30
2018,07,07,06,33,15.30
2018,07,07,06,34,15.30
2018,07,07,06,35,15.30
2018,07,07,06,36,15.30
2018,07,07,06,37,15.30
2018,07,07,06,38,15.30
2018,07,07,06,39,15.30
2018,07,07,06,40,15.40
2018,07,07,06,41,15.30
2018,07,07,06,42,15.30
2018,07,07,06,43,15.40
2018,07,07,06,44,15.30
2018,07,07,06,45,15.40
2018,07,07,06,46,15.40
2018,07,07,06,47,15.40
2018,07,07,06,48,15.40
2018,07,07,06,49,15.40
2018,07,07,06,50,15.40
2018,07,07,06,51,15.40
2018,07,07,06,52,15.40
2018,07,07,06,53,15.40
2018,07,07,06,54,15.40
2018,07,07,06,55,15.40
2018,07,07,06,56,15.30
2018,07,07,06,57,15.30
2018,07,07,06,58,15.40
2018,07,07,06,59,15.40
2018,07,07,07,00,15.40
2018,07,07,07,01,15.40
2018,07,07,07,02,15.40
2018,07,07,07,03,15.40
2018,07,07,07,04,15.40
2018,07,07,07,05,15.40
2018,07,07,07,06,15.40
2018,07,07,07,07,15.40
2018,07,07,07,08,15.40
2018,07,07,07,09,15.40
2018,07,07,07,10,15.40
2018,07,07,07,11,15.40
2018,07,07,07,12,15.40
2018,07,07,07,13,15.40
2018,07,07,07,14,15.40
2018,07,07,07,15,15.40
2018,07,07,07,16,15.40
2018,07,07,07,17,15.40
2018,07,07,07,18,15.50
2018,07,07,07,19,15.50
2018,07,07,07,20,15.50
2018,07,07,07,21,15.50
2018,07,07,07,22,15.50
2018,07,07,07,23,15.50
2018,07,07,07,24,15.60
2018,07,07,07,25,15.60
2018,07,07,07,26,15.60
2018,07,07,07,27,15.60
2018,07,07,07,28,15.60
2018,07,07,07,29,15.60
2018,07,07,07,30,15.60
2018,07,07,07,31,15.60
2018,07,07,07,32,15.60
2018,07,07,07,33,15.70
2018,07,07,07,34,15.70
2018,07,07,07,35,15.70
2018,07,07,07,36,15.70
2018,07,07,07,37,15.70
2018,07,07,07,38,15.70
2018,07,07,07,39,15.80
2018,07,07,07,40,15.80
2018,07,07,07,41,15.80
2018,07,07,07,42,15.80
2018,07,07,07,43,15.80
2018,07,07,07,44,15.80
2018,07,07,07,45,15.80
2018,07,07,07,46,15.90
2018,07,07,07,47,15.90
2018,07,07,07,48,15.90
2018,07,07,07,49,15.90
2018,07,07,07,50,15.90
2018,07,07,07,51,15.90
2018,07,07,07,52,15.90
2018,07,07,07,53,16.00
2018,07,07,07,54,16.00
2018,07,07,07,55,16.00
2018,07,07,07,56,16.00
2018,07,07,07,57,16.00
2018,07,07,07,58,16.00
2018,07,07,07,59,16.00
2018,07,07,08,00,16.00
2018,07,07,08,01,16.10
2018,07,07,08,02,16.10
2018,07,07,08,03,16.10
2018,07,07,08,04,16.10
2018,07,07,08,05,16.10
2018,07,07,08,06,16.10
2018,07,07,08,07,16.20
2018,07,07,08,08,16.20
2018,07,07,08,09,16.20
2018,07,07,08,10,16.20
2018,07,07,08,11,16.20
2018,07,07,08,12,16.20
2018,07,07,08,13,16.20
2018,07,07,08,14,16.20
2018,07,07,08,15,16.20
2018,07,07,08,16,16.20
2018,07,07,08,17,16.20
2018,07,07,08,18,16.20
2018,07,07,08,19,16.30
2018,07,07,08,20,16.30
2018,07,07,08,21,16.30
2018,07,07,08,22,16.30
2018,07,07,08,23,16.30
2018,07,07,08,24,16.40
2018,07,07,08,25,16.40
2018,07,07,08,26,16.40
2018,07,07,08,27,16.40
2018,07,07,08,28,16.40
2018,07,07,08,29,16.40
2018,07,07,08,30,16.50
2018,07,07,08,31,16.50
2018,07,07,08,32,16.50
2018,07,07,08,33,16.50
2018,07,07,08,34,16.50
2018,07,07,08,35,16.50
2018,07,07,08,36,16.50
2018,07,07,08,37,16.50
2018,07,07,08,38,16.50
2018,07,07,08,39,16.50
2018,07,07,08,40,16.50
2018,07,07,08,41,16.50
2018,07,07,08,42,16.40
2018,07,07,08,43,16.50
2018,07,07,08,44,16.40
2018,07,07,08,45,16.40
2018,07,07,08,46,16.40
2018,07,07,08,47,16.40
2018,07,07,08,48,16.40
2018,07,07,08,49,16.40
2018,07,07,08,50,16.40
2018,07,07,08,51,16.40
2018,07,07,08,52,16.40
2018,07,07,08,53,16.40
2018,07,07,08,54,16.40
2018,07,07,08,55,16.40
2018,07,07,08,56,16.40
2018,07,07,08,57,16.40
2018,07,07,08,58,16.40
2018,07,07,08,59,16.40
2018,07,07,09,00,16.40
2018,07,07,09,01,16.50
2018,07,07,09,02,16.40
2018,07,07,09,03,16.40
2018,07,07,09,04,16.50
2018,07,07,09,05,16.50
2018,07,07,09,06,16.50
2018,07,07,09,07,16.50
2018,07,07,09,08,16.60
2018,07,07,09,09,16.50
2018,07,07,09,10,16.60
2018,07,07,09,11,16.60
2018,07,07,09,12,16.60
2018,07,07,09,13,16.60
2018,07,07,09,14,16.60
2018,07,07,09,15,16.60
2018,07,07,09,16,16.60
2018,07,07,09,17,16.60
2018,07,07,09,18,16.60
2018,07,07,09,19,16.60
2018,07,07,09,20,16.60
2018,07,07,09,21,16.60
2018,07,07,09,22,16.70
2018,07,07,09,23,16.70
2018,07,07,09,24,16.70
2018,07,07,09,25,16.70
2018,07,07,09,26,16.70
2018,07,07,09,27,16.70
2018,07,07,09,28,16.70
2018,07,07,09,29,16.70
2018,07,07,09,30,16.70
2018,07,07,09,31,16.70
2018,07,07,09,32,16.70
2018,07,07,09,33,16.70
2018,07,07,09,34,16.70
2018,07,07,09,35,16.70
2018,07,07,09,36,16.70
2018,07,07,09,37,16.70
2018,07,07,09,38,16.70
2018,07,07,09,39,16.70
2018,07,07,09,40,16.70
2018,07,07,09,41,16.70
2018,07,07,09,42,16.80
2018,07,07,09,43,16.80
2018,07,07,09,44,16.80
2018,07,07,09,45,16.80
2018,07,07,09,46,16.80
2018,07,07,09,47,16.80
2018,07,07,09,48,16.90
2018,07,07,09,49,16.90
2018,07,07,09,50,16.90
2018,07,07,09,51,17.00
2018,07,07,09,52,17.00
2018,07,07,09,53,17.00
2018,07,07,09,54,17.00
2018,07,07,09,55,17.00
2018,07,07,09,56,17.10
2018,07,07,09,57,17.10
2018,07,07,09,58,17.10
2018,07,07,09,59,17.20
2018,07,07,10,00,17.20
2018,07,07,10,01,17.20
2018,07,07,10,02,17.30
2018,07,07,10,03,17.30
2018,07,07,10,04,17.30
2018,07,07,10,05,17.30
2018,07,07,10,06,17.30
2018,07,07,10,07,17.30
2018,07,07,10,08,17.30
2018,07,07,10,09,17.30
2018,07,07,10,10,17.30
2018,07,07,10,11,17.30
2018,07,07,10,12,17.40
2018,07,07,10,13,17.40
2018,07,07,10,14,17.40
2018,07,07,10,15,17.40
2018,07,07,10,16,17.40
2018,07,07,10,17,17.50
2018,07,07,10,18,17.50
2018,07,07,10,19,17.50
2018,07,07,10,20,17.60
2018,07,07,10,21,17.60
2018,07,07,10,22,17.60
2018,07,07,10,23,17.60
2018,07,07,10,24,17.60
2018,07,07,10,25,17.60
2018,07,07,10,26,17.60
2018,07,07,10,27,17.60
2018,07,07,10,28,17.60
2018,07,07,10,29,17.60
2018,07,07,10,30,17.60
2018,07,07,10,31,17.70
2018,07,07,10,32,17.70
2018,07,07,10,33,17.70
2018,07,07,10,34,17.70
2018,07,07,10,35,17.70
2018,07,07,10,36,17.70
2018,07,07,10,37,17.70
2018,07,07,10,38,17.70
2018,07,07,10,39,17.70
2018,07,07,10,40,17.70
2018,07,07,10,41,17.70
2018,07,07,10,42,17.70
2018,07,07,10,43,17.70
2018,07,07,10,44,17.70
2018,07,07,10,45,17.60
2018,07,07,10,46,17.60
2018,07,07,10,47,17.60
2018,07,07,10,48,17.60
2018,07,07,10,49,17.60
2018,07,07,10,50,17.60
2018,07,07,10,51,17.60
2018,07,07,10,52,17.60
2018,07,07,10,53,17.60
2018,07,07,10,54,17.50
2018,07,07,10,55,17.50
2018,07,07,10,56,17.50
2018,07,07,10,57,17.50
2018,07,07,10,58,17.50
2018,07,07,10,59,17.50
2018,07,07,11,00,17.50
2018,07,07,11,01,17.50
2018,07,07,11,02,17.50
2018,07,07,11,03,17.40
2018,07,07,11,04,17.50
2018,07,07,11,05,17.50
2018,07,07,11,06,17.40
2018,07,07,11,07,17.40
2018,07,07,11,08,17.50
2018,07,07,11,09,17.50
2018,07,07,11,10,17.50
2018,07,07,11,11,17.50
2018,07,07,11,12,17.50
2018,07,07,11,13,17.60
2018,07,07,11,14,17.60
2018,07,07,11,15,17.60
2018,07,07,11,16,17.60
2018,07,07,11,17,17.60
2018,07,07,11,18,17.60
2018,07,07,11,19,17.70
2018,07,07,11,20,17.70
2018,07,07,11,21,17.70
2018,07,07,11,22,17.70
2018,07,07,11,23,17.80
2018,07,07,11,24,17.80
2018,07,07,11,25,17.80
2018,07,07,11,26,17.80
2018,07,07,11,27,17.80
2018,07,07,11,28,17.90
2018,07,07,11,29,17.90
2018,07,07,11,30,17.90
2018,07,07,11,31,17.90
2018,07,07,11,32,17.90
2018,07,07,11,33,17.90
2018,07,07,11,34,18.00
2018,07,07,11,35,17.90
2018,07,07,11,36,18.00
2018,07,07,11,37,18.00
2018,07,07,11,38,18.00
2018,07,07,11,39,18.00
2018,07,07,11,40,18.10
2018,07,07,11,41,18.10
2018,07,07,11,42,18.10
2018,07,07,11,43,18.10
2018,07,07,11,44,18.10
2018,07,07,11,45,18.20
2018,07,07,11,46,18.20
2018,07,07,11,47,18.20
2018,07,07,11,48,18.30
2018,07,07,11,49,18.40
2018,07,07,11,50,18.50
2018,07,07,11,51,18.60
2018,07,07,11,52,18.70
2018,07,07,11,53,18.80
2018,07,07,11,54,18.90
2018,07,07,11,55,19.00
2018,07,07,11,56,19.10
2018,07,07,11,57,19.20
2018,07,07,11,58,19.20
2018,07,07,11,59,19.30
2018,07,07,12,00,19.30
2018,07,07,12,01,19.40
2018,07,07,12,02,19.40
2018,07,07,12,03,19.30
2018,07,07,12,04,19.40
2018,07,07,12,05,19.30
2018,07,07,12,06,19.30
2018,07,07,12,07,19.30
2018,07,07,12,08,19.30
2018,07,07,12,09,19.20
2018,07,07,12,10,19.20
2018,07,07,12,11,19.10
2018,07,07,12,12,19.10
2018,07,07,12,13,19.10
2018,07,07,12,14,19.10
2018,07,07,12,15,19.20
2018,07,07,12,16,19.20
2018,07,07,12,17,19.20
2018,07,07,12,18,19.20
2018,07,07,12,19,19.20
2018,07,07,12,20,19.20
2018,07,07,12,21,19.20
2018,07,07,12,22,19.20
2018,07,07,12,23,19.10
2018,07,07,12,24,19.10
2018,07,07,12,25,19.10
2018,07,07,12,26,19.10
2018,07,07,12,27,19.10
2018,07,07,12,28,19.10
2018,07,07,12,29,19.10
2018,07,07,12,30,19.20
2018,07,07,12,31,19.20
2018,07,07,12,32,19.20
2018,07,07,12,33,19.20
2018,07,07,12,34,19.20
2018,07,07,12,35,19.20
2018,07,07,12,36,19.20
2018,07,07,12,37,19.30
2018,07,07,12,38,19.30
2018,07,07,12,39,19.30
2018,07,07,12,40,19.30
2018,07,07,12,41,19.30
2018,07,07,12,42,19.30
2018,07,07,12,43,19.30
2018,07,07,12,44,19.30
2018,07,07,12,45,19.30
2018,07,07,12,46,19.30
2018,07,07,12,47,19.30
2018,07,07,12,48,19.30
2018,07,07,12,49,19.30
2018,07,07,12,50,19.30
2018,07,07,12,51,19.30
2018,07,07,12,52,19.30
2018,07,07,12,53,19.30
2018,07,07,12,54,19.20
2018,07,07,12,55,19.20
2018,07,07,12,56,19.20
2018,07,07,12,57,19.20
2018,07,07,12,58,19.20
2018,07,07,12,59,19.20
2018,07,07,13,00,19.20
2018,07,07,13,01,19.20
2018,07,07,13,02,19.20
2018,07,07,13,03,19.20
2018,07,07,13,04,19.30
2018,07,07,13,05,19.40
2018,07,07,13,06,19.40
2018,07,07,13,07,19.50
2018,07,07,13,08,19.60
2018,07,07,13,09,19.80
2018,07,07,13,10,19.90
2018,07,07,13,11,20.00
2018,07,07,13,12,20.10
2018,07,07,13,13,20.10
2018,07,07,13,14,20.20
2018,07,07,13,15,20.20
2018,07,07,13,16,20.20
2018,07,07,13,17,20.30
2018,07,07,13,18,20.30
2018,07,07,13,19,20.40
2018,07,07,13,20,20.40
2018,07,07,13,21,20.40
2018,07,07,13,22,20.40
2018,07,07,13,23,20.30
2018,07,07,13,24,20.30
2018,07,07,13,25,20.40
2018,07,07,13,26,20.40
2018,07,07,13,27,20.40
2018,07,07,13,28,20.50
2018,07,07,13,29,20.50
2018,07,07,13,30,20.60
2018,07,07,13,31,20.60
2018,07,07,13,32,20.70
2018,07,07,13,33,20.70
2018,07,07,13,34,20.70
2018,07,07,13,35,20.70
2018,07,07,13,36,20.70
2018,07,07,13,37,20.70
2018,07,07,13,38,20.70
2018,07,07,13,39,20.60
2018,07,07,13,40,20.60
2018,07,07,13,41,20.50
2018,07,07,13,42,20.50
2018,07,07,13,43,20.50
2018,07,07,13,44,20.40
2018,07,07,13,45,20.30
2018,07,07,13,46,20.30
2018,07,07,13,47,20.20
2018,07,07,13,48,20.10
2018,07,07,13,49,20.10
2018,07,07,13,50,20.00
2018,07,07,13,51,19.90
2018,07,07,13,52,19.90
2018,07,07,13,53,19.80
2018,07,07,13,54,19.80
2018,07,07,13,55,19.80
2018,07,07,13,56,19.80
2018,07,07,13,57,19.80
2018,07,07,13,58,19.80
2018,07,07,13,59,19.80
2018,07,07,14,00,19.80
2018,07,07,14,01,19.80
2018,07,07,14,02,19.80
2018,07,07,14,03,19.80
2018,07,07,14,04,19.80
2018,07,07,14,05,19.70
2018,07,07,14,06,19.70
2018,07,07,14,07,19.70
2018,07,07,14,08,19.70
2018,07,07,14,09,19.60
2018,07,07,14,10,19.60
2018,07,07,14,11,19.60
2018,07,07,14,12,19.60
2018,07,07,14,13,19.50
2018,07,07,14,14,19.50
2018,07,07,14,15,19.50
2018,07,07,14,16,19.50
2018,07,07,14,17,19.50
2018,07,07,14,18,19.50
2018,07,07,14,19,19.50
2018,07,07,14,20,19.50
2018,07,07,14,21,19.50
2018,07,07,14,22,19.60
2018,07,07,14,23,19.60
2018,07,07,14,24,19.60
2018,07,07,14,25,19.60
2018,07,07,14,26,19.70
2018,07,07,14,27,19.80
2018,07,07,14,28,19.80
2018,07,07,14,29,19.90
2018,07,07,14,30,19.90
2018,07,07,14,31,20.00
2018,07,07,14,32,20.00
2018,07,07,14,33,20.10
2018,07,07,14,34,20.10
2018,07,07,14,35,20.10
2018,07,07,14,36,20.10
2018,07,07,14,37,20.10
2018,07,07,14,38,20.10
2018,07,07,14,39,20.10
2018,07,07,14,40,20.10
2018,07,07,14,41,20.10
2018,07,07,14,42,20.10
2018,07,07,14,43,20.20
2018,07,07,14,44,20.20
2018,07,07,14,45,20.20
2018,07,07,14,46,20.20
2018,07,07,14,47,20.20
2018,07,07,14,48,20.30
2018,07,07,14,49,20.30
2018,07,07,14,50,20.30
2018,07,07,14,51,20.30
2018,07,07,14,52,20.40
2018,07,07,14,53,20.40
2018,07,07,14,54,20.50
2018,07,07,14,55,20.60
2018,07,07,14,56,20.60
2018,07,07,14,57,20.60
2018,07,07,14,58,20.60
2018,07,07,14,59,20.60
2018,07,07,15,00,20.60
2018,07,07,15,01,20.60
2018,07,07,15,02,20.70
2018,07,07,15,03,20.70
2018,07,07,15,04,20.70
2018,07,07,15,05,20.70
2018,07,07,15,06,20.70
2018,07,07,15,07,20.70
2018,07,07,15,08,20.70
2018,07,07,15,09,20.70
2018,07,07,15,10,20.60
2018,07,07,15,11,20.60
2018,07,07,15,12,20.60
2018,07,07,15,13,20.60
2018,07,07,15,14,20.60
2018,07,07,15,15,20.60
2018,07,07,15,16,20.60
2018,07,07,15,17,20.60
2018,07,07,15,18,20.60
2018,07,07,15,19,20.60
2018,07,07,15,20,20.50
2018,07,07,15,21,20.50
2018,07,07,15,22,20.50
2018,07,07,15,23,20.50
2018,07,07,15,24,20.50
2018,07,07,15,25,20.60
2018,07,07,15,26,20.60
2018,07,07,15,27,20.60
2018,07,07,15,28,20.60
2018,07,07,15,29,20.60
2018,07,07,15,30,20.60
2018,07,07,15,31,20.70
2018,07,07,15,32,20.70
2018,07,07,15,33,20.70
2018,07,07,15,34,20.80
2018,07,07,15,35,20.80
2018,07,07,15,36,20.80
2018,07,07,15,37,20.80
2018,07,07,15,38,20.80
2018,07,07,15,39,20.80
2018,07,07,15,40,20.80
2018,07,07,15,41,20.90
2018,07,07,15,42,20.90
2018,07,07,15,43,21.00
2018,07,07,15,44,21.00
2018,07,07,15,45,21.10
2018,07,07,15,46,21.10
2018,07,07,15,47,21.10
2018,07,07,15,48,21.00
2018,07,07,15,49,21.00
2018,07,07,15,50,21.00
2018,07,07,15,51,21.10
2018,07,07,15,52,21.10
2018,07,07,15,53,21.10
2018,07,07,15,54,21.10
2018,07,07,15,55,21.00
2018,07,07,15,56,21.00
2018,07,07,15,57,20.90
2018,07,07,15,58,20.90
2018,07,07,15,59,20.90
2018,07,07,16,00,20.90
2018,07,07,16,01,20.90
2018,07,07,16,02,20.90
2018,07,07,16,03,20.90
2018,07,07,16,04,20.90
2018,07,07,16,05,20.80
2018,07,07,16,06,20.80
2018,07,07,16,07,20.90
2018,07,07,16,08,20.90
2018,07,07,16,09,21.00
2018,07,07,16,10,21.00
2018,07,07,16,11,21.10
2018,07,07,16,12,21.10
2018,07,07,16,13,21.20
2018,07,07,16,14,21.20
2018,07,07,16,15,21.20
2018,07,07,16,16,21.30
2018,07,07,16,17,21.30
2018,07,07,16,18,21.30
2018,07,07,16,19,21.30
2018,07,07,16,20,21.30
2018,07,07,16,21,21.30
2018,07,07,16,22,21.30
2018,07,07,16,23,21.30
2018,07,07,16,24,21.20
2018,07,07,16,25,21.20
2018,07,07,16,26,21.20
2018,07,07,16,27,21.20
2018,07,07,16,28,21.10
2018,07,07,16,29,21.10
2018,07,07,16,30,21.10
2018,07,07,16,31,21.10
2018,07,07,16,32,21.10
2018,07,07,16,33,21.10
2018,07,07,16,34,21.10
2018,07,07,16,35,21.10
2018,07,07,16,36,21.10
2018,07,07,16,37,21.10
2018,07,07,16,38,21.10
2018,07,07,16,39,21.10
2018,07,07,16,40,21.00
2018,07,07,16,41,21.00
2018,07,07,16,42,20.90
2018,07,07,16,43,20.90
2018,07,07,16,44,20.90
2018,07,07,16,45,20.90
2018,07,07,16,46,20.90
2018,07,07,16,47,20.90
2018,07,07,16,48,20.90
2018,07,07,16,49,20.90
2018,07,07,16,50,20.90
2018,07,07,16,51,21.00
2018,07,07,16,52,21.20
2018,07,07,16,53,21.30
2018,07,07,16,54,21.40
2018,07,07,16,55,21.50
2018,07,07,16,56,21.60
2018,07,07,16,57,21.70
2018,07,07,16,58,21.90
2018,07,07,16,59,22.00
2018,07,07,17,00,22.10
2018,07,07,17,01,22.10
2018,07,07,17,02,22.10
2018,07,07,17,03,22.10
2018,07,07,17,04,22.20
2018,07,07,17,05,22.20
2018,07,07,17,06,22.30
2018,07,07,17,07,22.40
2018,07,07,17,08,22.50
2018,07,07,17,09,22.50
2018,07,07,17,10,22.60
2018,07,07,17,11,22.60
2018,07,07,17,12,22.70
2018,07,07,17,13,22.70
2018,07,07,17,14,22.70
2018,07,07,17,15,22.80
2018,07,07,17,16,22.80
2018,07,07,17,17,22.80
2018,07,07,17,18,22.80
2018,07,07,17,19,22.80